Regional Weather Roundup
Issued by NWS Cleveland, OH

Home | Current Version | Previous Version | Graphics & Text | Print | Product List | Glossary On
Versions: 1 2 3 4 5 6 7 8 9 10 11 12 13 14 15 16 17 18 19 20 21 22 23 24 25 26 27 28 29 30 31 32 33 34 35 36 37 38 39 40 41 42 43 44 45 46 47 48 49 50
905
ASUS41 KCLE 110510
RWRCLE
OHIO REGIONAL WEATHER ROUNDUP
NATIONAL WEATHER SERVICE WILMINGTON, OH
1200 AM EST SUN DEC 11 2016

NOTE: "FAIR" INDICATES FEW OR NO CLOUDS BELOW 12,000 FEET WITH NO
SIGNIFICANT WEATHER AND/OR OBSTRUCTIONS TO VISIBILITY.

OHZ001>008-015>018-024>027-034-035-043-044-110600-
   NORTHWEST OHIO

CITY           SKY/WX    TMP DP  RH WIND       PRES   REMARKS
DEFIANCE       LGT SNOW  25  20  81 S5        30.40S VSB 1   WCI  19
FINDLAY        LGT SNOW  24  20  84 S5        30.39S FOG     WCI  18
TOLEDO EXPRESS LGT SNOW  23  22  96 S5        30.40S FOG     WCI  17
TOLEDO EXEC    LGT SNOW  25  22  88 SW6       30.42R FOG     WCI  18
LIMA           LGT SNOW  24  22  91 S5        30.38S FOG     WCI  18
$$

OHZ009>014-019>023-028>033-038-089-110600-
   NORTHEAST OHIO

CITY           SKY/WX    TMP DP  RH WIND       PRES   REMARKS
CLE-HOPKINS    CLOUDY    26  16  65 S6        30.44S WCI  19
CLE-LAKEFRONT  CLOUDY    26  16  65 S10       30.42S WCI  16
CUY CO. ARPT   NOT AVBL
LORAIN-ELYRIA  CLOUDY    24  16  71 S5        30.41F WCI  18
ASHTABULA      FAIR      22  14  71 SW9       30.41R WCI  12
AKRON-CANTON   MOCLDY    24  15  68 S7        30.39F WCI  16
WOOSTER        CLOUDY    23  16  74 S6        30.40F WCI  16
MANSFIELD      CLOUDY    22  17  81 S7        30.38F WCI  13
YOUNGSTOWN     FLURRIES  23  15  71 S5        30.40S WCI  17
$$

OHZ042-051>053-060>062-070>072-077>081-110600-
  SOUTHWEST OHIO

CITY           SKY/WX    TMP DP  RH WIND       PRES   REMARKS
CINC-COVINGTON CLOUDY    29  17  61 S8        30.36F WCI  21
CINC-LUNKEN    FAIR      29  20  69 CALM      30.41F
HAMILTON       CLOUDY    30  18  60 VRB3      30.40F
DAYTON         CLOUDY    26  17  68 E3        30.38S
WRIGHT-PAT AFB CLOUDY    27  18  70 E3        30.39S
DAYTON GENERAL CLOUDY    27  17  66 SE6       30.36F WCI  20
WILMINGTON     CLOUDY    26  18  71 SE5       30.38S WCI  20
$$

OHZ036-037-039>041-045>050-054>059-063>069-073>076-082>088-110600-
  CENTRAL AND SOUTHEAST OHIO

CITY           SKY/WX    TMP DP  RH WIND       PRES   REMARKS
COLUMBUS       CLOUDY    26  18  71 E5        30.41F WCI  20
OSU AIRPORT    CLOUDY    26  17  68 SE3       30.40F
BOLTON FIELD   CLOUDY    26  18  72 SE3       30.41S
RICKENBACK AFB   N/A     25  20  81 SE3       30.41F
NEWARK         CLOUDY    23  18  81 CALM      30.41F
MARION         LGT SNOW  24  19  81 S5        30.40F WCI  18
LANCASTER      CLOUDY    26  21  81 E3        30.42F
ZANESVILLE     CLOUDY    24  16  71 CALM      30.43S
NEW PHILLY     MOCLDY    24  19  81 SE3       30.44S
$$




USA.gov is the U.S. government's official web portal to all federal, state and local government web resources and services.